Location: Molveno
(46.1500°N, 10.9667°E)
Time: 01:34:02
(UTC+00:00)

Cosmos 1048 Rocket - Pass Details

Date: 05 July 2020
Orbit: 744 x 791 km, 74.0° (Epoch: 11 August)

Event Time Altitude Azimuth Distance (km) Brightness Sun altitude
Exits shadow 23:19:34 43° 152° (SSE) 1,081 4.3 -21.2°
Maximum altitude 23:20:51 54° 106° (ESE) 938 4.3 -21.2°
Drops below altitude 10° 23:25:59 10° 30° (NNE) 2,320 7.4 -21.2°
Sets 23:28:23 0° 26° (NNE) 3,244 8.4 -21.2°
